Regional Weather Roundup
Issued by NWS

Home | Current Version | Previous Version | Graphics & Text | Print | Product List | Glossary On
Versions: 1 2 3 4 5 6 7 8 9 10 11 12 13 14 15 16 17 18 19 20 21 22 23 24 25 26 27 28 29 30 31 32 33 34 35 36 37 38 39 40 41 42 43 44 45 46 47 48 49 50
000
ASUS43 KOAX 250602
RWRNE

WEATHER ROUNDUP FOR NEBRASKA
NATIONAL WEATHER SERVICE OMAHA NE
100 AM CDT SUN JUN 25 2017

NOTES: SATELLITE DATA IS BEING USED TO AUGMENT CLOUD COVER ABOVE
       12000 FEET.
       "FAIR" INDICATES FEW OR NO CLOUDS BELOW 12,000 FEET WITH NO
       SIGNIFICANT WEATHER AND/OR OBSTRUCTIONS TO VISIBILITY.

  * THESE STATIONS DO NOT REPORT WEATHER SUCH AS RAIN...SNOW OR FOG.

NEZ001>004-019>022-054>056-250700-
NEBRASKA PANHANDLE

CITY           SKY/WX    TMP DP  RH WIND       PRES   REMARKS
SCOTTSBLUFF    PTCLDY    57  41  55 MISG      30.34R
6HR MIN TEMP:  56; 6HR MAX TEMP:  74;

ALLIANCE       PTCLDY    53  40  61 NE7       30.34R
6HR MIN TEMP:  51; 6HR MAX TEMP:  73;

CHADRON        CLOUDY    53  40  61 NE7       30.37R
6HR MIN TEMP:  53; 6HR MAX TEMP:  76;

GORDON         FAIR      51  41  67 CALM      30.37R
6HR MIN TEMP:  51; 6HR MAX TEMP:  72;

KIMBALL        CLEAR     51  40  67 E7        30.37R
SIDNEY         CLEAR     52  38  58 E6        30.35S
6HR MIN TEMP:  52; 6HR MAX TEMP:  74;

$$

NEZ057>060-069>072-079>082-250700-
SOUTHWEST NEBRASKA

CITY           SKY/WX    TMP DP  RH WIND       PRES   REMARKS
NORTH PLATTE   CLEAR     49  40  71 CALM      30.30S
6HR MIN TEMP:  48; 6HR MAX TEMP:  78;

IMPERIAL       CLOUDY    54  45  71 SE5       30.31F
6HR MIN TEMP:  52; 6HR MAX TEMP:  73;

LEXINGTON      CLEAR     49  44  81 N5        30.29S
MCCOOK         CLEAR     53  48  83 NE5       30.30S
6HR MIN TEMP:  53; 6HR MAX TEMP:  70;

OGALLALA       CLEAR     50  38  64 CALM      30.33S
$$

NEZ005>010-023>029-035>040-094-250700-
NORTH CENTRAL NEBRASKA

CITY           SKY/WX    TMP DP  RH WIND       PRES   REMARKS
VALENTINE      CLEAR     54  31  41 CALM      30.33R
6HR MIN TEMP:  52; 6HR MAX TEMP:  77;

AINSWORTH      CLEAR     53  37  54 CALM      30.32R
BROKEN BOW     CLEAR     52  41  66 N7        30.30R
6HR MIN TEMP:  50; 6HR MAX TEMP:  72;

O`NEILL        MOCLDY    53  39  58 N10       30.30R
ORD            CLEAR     50  41  71 CALM      30.28R
6HR MIN TEMP:  47; 6HR MAX TEMP:  71; 6HR PCP: TRACE;

THEDFORD       PTCLDY    55  37  50 NE3       30.33S
$$

NEZ041-046>049-061>064-073>077-083>087-250700-
SOUTH CENTRAL NEBRASKA

CITY           SKY/WX    TMP DP  RH WIND       PRES   REMARKS
GRAND ISLAND   CLEAR     58  44  60 NW5       30.27R
6HR MIN TEMP:  55; 6HR MAX TEMP:  75;

AURORA         CLEAR     54  44  69 NW5       30.27R
HASTINGS       PTCLDY    56  43  61 W3        30.28R
6HR MIN TEMP:  56; 6HR MAX TEMP:  75;

HEBRON         CLEAR     55  49  80 CALM      30.25R
HOLDREGE       CLEAR     55  44  66 CALM      30.28S
KEARNEY *      CLEAR     55  39  54 CALM      30.28S
YORK           CLEAR     54  45  71 NW3       30.26R
$$

NEZ011>018-030>034-042>045-250700-
NORTHEAST NEBRASKA

CITY           SKY/WX    TMP DP  RH WIND       PRES   REMARKS
NORFOLK        PTCLDY    52  39  61 NW5       30.26R
6HR MIN TEMP:  52; 6HR MAX TEMP:  76;

ALBION         CLEAR     48  42  81 NW5       30.28R
BLAIR          PTCLDY    60  41  49 N8        30.23R
FREMONT        PTCLDY    58  41  52 NW3       30.24R
TEKAMAH        CLEAR     55  40  56 NW9       30.22R
6HR MIN TEMP:  54; 6HR MAX TEMP:  78;

WAYNE          CLEAR     48  42  81 CALM      30.26R
$$

NEZ050>053-065>068-078-088>093-250700-
SOUTHEAST NEBRASKA

CITY           SKY/WX    TMP DP  RH WIND       PRES   REMARKS
LINCOLN        PTCLDY    53  46  77 N3        30.24R
6HR MIN TEMP:  52; 6HR MAX TEMP:  78;

OMAHA EPPLEY   PTCLDY    57  45  64 N6        30.22R
6HR MIN TEMP:  57; 6HR MAX TEMP:  77;

BEATRICE       PTCLDY    57  49  75 CALM      30.23R
FALLS CITY     CLEAR     59  47  64 NW6       30.19R
6HR MIN TEMP:  58; 6HR MAX TEMP:  76;

NEBRASKA CITY  CLEAR     62  47  58 NW7       30.22R
PLATTSMOUTH    CLEAR     62  43  50 NW3       30.22R
$$

NEZ044-045-051>053-067-250700-
OMAHA AREA

CITY           SKY/WX    TMP DP  RH WIND       PRES   REMARKS
OMAHA EPPLEY   PTCLDY    57  45  64 N6        30.22R
6HR MIN TEMP:  57; 6HR MAX TEMP:  77;

BLAIR          PTCLDY    60  41  49 N8        30.23R
FREMONT        PTCLDY    58  41  52 NW3       30.24R
MILLARD        CLEAR     65  43  46 CALM      30.22R
OFFUTT AFB     CLEAR     59  41  52 N5        30.21R
PLATTSMOUTH    CLEAR     62  43  50 NW3       30.22R
WAHOO          FAIR      59  41  51 N9        30.24R
$$




USA.gov is the U.S. government's official web portal to all federal, state and local government web resources and services.